Home   Weather   Paris   Past weeks
Flag for USA

Past Weather in Paris, Idaho, USA — Yesterday and Last 2 Weeks

Now
92 °F

Sunny.


Feels Like: 88 °F
Forecast: 88 / 63 °F
Wind: 8 mph from Northwest

Location: Pocatello Regional Airport

Current Time: Jul 11, 2020 at 7:16:52 pm

Latest Report: Jul 11, 2020 at 5:53 pm


Visibility: 10 mi

Pressure: 29.96 "Hg

Humidity: 16%

Dew Point: 40 °F

Location of ParisLocation

Past Weather in Paris — Graph

°F

Paris Temperature Yesterday

Maximum temperature yesterday: 85 °F (at 4:53 pm)
Minimum temperature yesterday: 51 °F (at 2:53 am)
Average temperature yesterday: 71 °F

High & Low Weather Summary for the Past Weeks

 TemperatureHumidityPressure
High92 °F (Jul 11, 5:53 pm)93% (Jun 28, 2:53 pm)30.14 "Hg (Jun 28, 2:53 pm)
Low45 °F (Jun 29, 5:53 am)14% (Jul 9, 5:53 pm)29.49 "Hg (Jun 28, 3:53 am)
Average66 °F49%29.87 "Hg
* Reported Jun 26 5:53 pm — Jul 11 5:53 pm, Paris. Weather by CustomWeather, © 2020

Note: Actual official high and low records may vary slightly from our data, if they occured in-between our weather recording intervals... More about our weather records

Paris Weather History for the Previous 24 Hours

Scroll right to see more
 ConditionsComfort  
Time TempWeatherWind HumidityBarometerVisibility
5:53 pm
Sat, Jul 11
92 °FSunny.8 mph16%29.96 "Hg10 mi
4:53 pm90 °FSunny.9 mph21%30.00 "Hg10 mi
3:53 pm91 °FSunny.9 mph24%30.01 "Hg10 mi
2:53 pm91 °FSunny.8 mph20%30.01 "Hg10 mi
1:53 pm90 °FSunny.8 mph22%30.04 "Hg10 mi
12:53 pm87 °FSunny.8 mph27%30.07 "Hg10 mi
11:53 am82 °FSunny.8 mph31%30.08 "Hg10 mi
10:53 am76 °FSunny.7 mph36%30.09 "Hg10 mi
9:53 am72 °FSunny.7 mph40%30.11 "Hg10 mi
8:53 am69 °FSunny.6 mph41%30.13 "Hg10 mi
7:53 am62 °FSunny.No wind50%30.12 "Hg10 mi
6:53 am52 °FClear.6 mph72%30.14 "Hg10 mi
5:53 am52 °FClear.3 mph72%30.13 "Hg10 mi
4:53 am49 °FClear.3 mph80%30.12 "Hg10 mi
3:53 am50 °FClear.6 mph74%30.11 "Hg10 mi
2:53 am56 °FClear.No wind58%30.08 "Hg10 mi
1:53 am58 °FClear.5 mph58%30.08 "Hg10 mi
12:53 am58 °FClear.8 mph54%30.09 "Hg10 mi
11:53 pm
Fri, Jul 10
65 °FClear.9 mph42%30.08 "Hg10 mi
10:53 pm71 °FClear.9 mph34%30.07 "Hg10 mi
9:53 pm72 °FSunny.13 mph33%30.06 "Hg10 mi
8:53 pm71 °FSunny.8 mph39%30.06 "Hg10 mi
7:53 pm80 °FSunny.12 mph26%30.05 "Hg10 mi
Weather by CustomWeather, © 2020

See weather overview